www.pogodaiklimat.ru

Погода и климат >> Архив погоды >> Мексика >> Acapulco


АРХИВ ПОГОДЫ в Acapulco

Время (UTC), дата Ветер
(напр.,м/с)
 
Видим.   Явления Облачность Т
(С)
Тd
(С)
f
(%)
Тe
(С)
Тes
(С)
Комфортность P
(гПа)
Po
(гПа)
Тmin
(С)
Tmax
(С)
R
(мм)
R24
(мм)
S
(см)
18 18.05 ЮЗ 3 18 км мгла 1/1 840 м
[Cu med, cong]
+33.8 +22.4 51 +43 +59 опасность
перегрева
1009.7 1009.3 +26.0 +34.2
21 18.05 ЮЗ 4 18 км мгла ясно +33.8 +25.8 63 +49 +60 опасность
перегрева
1007.2 1006.8
00 19.05 З 3 18 км мгла 1/1 600 м
[Cu med, cong]
+31.9 +25.9 71 +47 +49 опасность
перегрева
1006.7 1006.2 +26.0 +34.6
03 19.05 З 2 10 км 5/5 840 м
[Cu med, cong]
+29.1 +26.2 84 +44 +44 опасность
перегрева
1010.0 1009.7
06 19.05 З 1 10 км 6/6 600 м
[Cu med, cong]
+28.6 +25.9 85 +43 +43 опасность
перегрева
1010.9 1010.6 +26.0 +34.6
09 19.05 З 2 10 км 5/5 840 м
[Cu med, cong]
+28.2 +23.9 78 +39 +39 очень
душно
1010.0 1009.7
12 19.05 З 1 15 км 3/1 870 м
[Cu hum Cs]
+26.9 +23.9 84 +37 +37 очень
душно
1009.5 1009.1 +25.8 +34.2
15 19.05 С 1 20 км 1/0 2000 м
[Ac trans]
+31.0 +23.2 63 +41 +51 опасность
перегрева
1009.7 1009.4
18 19.05 ЮЗ 2 20 км ясно +33.8 +25.1 61 +48 +69 опасность
перегрева
1009.0 1008.7 +25.8 +34.6
21 19.05 ЮЗ 5 20 км ясно +33.6 +24.6 59 +46 +54 опасность
перегрева
1008.1 1007.7
00 20.05 З 3 20 км 5/3 600 м
[Cu med, cong Cs]
+31.5 +25.5 71 +46 +47 опасность
перегрева
1007.9 1007.6 +25.8 +34.9
03 20.05 З 1 10 км 5/3 870 м
[Cu med, cong Ac und]
+28.7 +25.6 83 +42 +42 опасность
перегрева
1010.2 1009.8
06 20.05 З 1 10 км 3/1 600 м
[Cu med, cong Ac und]
+28.0 +25.5 86 +41 +41 опасность
перегрева
1011.6 1011.3 +25.8 +34.9
09 20.05 З 1 10 км 3/3 870 м
[Cu med, cong]
+27.1 +25.5 91 +40 +40 очень
душно
1010.2 1009.8
12 20.05 СЗ 1 18 км 3/1 870 м
[Cu med, cong Ac und]
+26.0 +24.4 91 +36 +36 очень
душно
1009.7 1009.3 +25.1 +34.9
15 20.05 С 1 20 км 3/1 870 м
[Cu med, cong Ac und]
+30.9 +23.7 66 +42 +50 опасность
перегрева
1011.6 1011.1
18 20.05 ЮЗ 3 20 км ясно +34.8 +21.9 47 +43 +61 опасность
перегрева
1010.4 1010.0 +25.1 +35.4
21 20.05 ЮЗ 4 20 км 1/1 840 м
[Cu med, cong]
+33.4 +25.6 64 +48 +58 опасность
перегрева
1008.1 1007.6
00 21.05 ЮЗ 3 20 км 4/0
[Cs]
+31.8 +25.2 68 +46 +47 опасность
перегрева
1008.3 1007.8 +25.1 +35.4
03 21.05 З 2 10 км ясно +28.8 +25.1 80 +42 +42 опасность
перегрева
1010.0 1009.6
06 21.05 З 1 10 км 3/3 600 м
[Cu med, cong]
+27.1 +24.4 85 +38 +38 очень
душно
1011.1 1010.6 +25.1 +35.4
09 21.05 З 1 10 км ясно +26.2 +24.4 90 +37 +37 очень
душно
1009.7 1009.2
12 21.05 З 1 10 км 1/0 2000 м
[Ac und]
+25.4 +24.0 92 +35 +35 очень
душно
1009.3 1008.8 +24.4 +35.4
15 21.05 СЗ 1 20 км 3/1 900 м
[Cu hum Ac trans]
+30.7 +24.2 68 +43 +50 опасность
перегрева
1010.6 1010.2
18 21.05 ЮЗ 3 20 км 8/8 900 м
[Frnb]
+31.7 +23.5 62 +43 +46 опасность
перегрева
1011.3 1011.0 +24.4 +34.0
21 21.05 ЮЗ 4 20 км 4/3 900 м
[St Ac trans]
+32.8 +25.3 65 +47 +54 опасность
перегрева
1009.3 1008.7
00 22.05 ЮЗ 2 20 км 5/4 600 м
[Cu med, cong Ac trans]
+31.2 +24.7 68 +44 +45 опасность
перегрева
1008.6 1008.1 +24.4 +34.3
03 22.05 ЮЗ 1 10 км 5/1 900 м
[Cu hum Ac trans]
+28.6 +25.2 82 +42 +42 опасность
перегрева
1010.6 1010.3
06 22.05 СЗ 1 10 км 3/1 600 м
[Cu hum Ac trans]
+27.0 +24.7 87 +38 +38 очень
душно
1010.6 1010.4 +24.4 +34.3
09 22.05 СЗ 1 10 км ясно +27.4 +24.3 83 +38 +38 очень
душно
1010.9 1008.2
12 22.05 СЗ 1 18 км 1/1 900 м
[Cu hum]
+26.2 +24.2 89 +36 +36 очень
душно
1009.3 1008.9 +25.2 +34.3
15 22.05 С 1 20 км ясно +30.8 +25.0 71 +44 +54 опасность
перегрева
1010.2 1009.8
18 22.05 ЮЗ 3 20 км 1/1 900 м
[Cu hum]
+33.5 +24.6 60 +47 +63 опасность
перегрева
1009.5 1009.2 +25.2 +34.8
21 22.05 ЮЗ 5 20 км 3/3 900 м
[Cu hum]
+33.8 +25.4 62 +48 +54 опасность
перегрева
1008.1 1007.7
00 23.05 ЮЗ 4 20 км 1/1 600 м
[Cu hum]
+31.9 +25.6 69 +46 +47 опасность
перегрева
1007.6 1007.2 +25.2 +35.0
03 23.05 З 2 10 км 1/1 900 м
[Cu hum]
+29.2 +25.9 82 +44 +44 опасность
перегрева
1009.7 1009.3
06 23.05 З 1 10 км 5/5 870 м
[Cu med, cong]
+28.5 +25.7 85 +42 +42 опасность
перегрева
1011.6 1011.2 +25.2 +35.0
09 23.05 СЗ 2 10 км слабая морось 10/10 750 м
[Cu med, cong]
+24.2 +22.9 92 +32 +32 очень
душно
1010.7 1010.2 1
12 23.05 СЗ 2 15 км в посл. час морось 5/1 600 м
[Cu hum Ac trans Cs]
+23.9 +22.6 92 +31 +31 очень
душно
1010.4 1010.1 1
15 23.05 СЗ 2 20 км 3/0
[Cs]
+29.4 +23.0 68 +39 +47 очень
душно
1011.5 1011.0
18 23.05 ЮЗ 3 20 км 5/0
[Cs]
+34.8 +22.2 48 +44 +60 опасность
перегрева
1011.1 1010.6 +22.7 +35.7
21 23.05 ЮЗ 3 20 км мгла 4/0
[Cs]
+34.4 +23.9 54 +46 +58 опасность
перегрева
1008.3 1008.0
00 24.05 ЮЗ 4 20 км 3/0
[Cs]
+31.4 +25.5 71 +46 +47 опасность
перегрева
1007.9 1007.5 +22.7 +35.8
03 24.05 З 1 10 км ясно +28.7 +25.0 80 +41 +41 опасность
перегрева
1011.3 1011.0
06 24.05 З 1 10 км ясно +27.4 +25.3 88 +40 +40 очень
душно
1012.5 1012.1 +22.7 +35.8
12 24.05 СЗ 1 16 км 3/3 870 м
[Cu med, cong]
+26.4 +25.0 92 +38 +38 очень
душно
1011.8 1011.4 +25.3 +35.8
15 24.05 СЗ 2 18 км мгла 5/0
[Cs]
+30.6 +25.3 73 +44 +52 опасность
перегрева
1013.2 1012.7
18 24.05 ЮЗ 2 18 км мгла 6/0
[Cs]
+34.2 +25.0 59 +48 +67 опасность
перегрева
1012.7 1012.3 +25.3 +35.1
21 24.05 ЮЗ 3 18 км мгла 4/1 900 м
[Cu hum Cs]
+34.4 +26.1 62 +50 +61 опасность
перегрева
1011.3 1010.8
00 25.05 ЮЗ 2 18 км 4/1 600 м
[Cu hum Ac trans]
+32.8 +25.3 65 +47 +48 опасность
перегрева
1010.2 1009.7 +25.3 +35.2
06 25.05 ЮЗ 1 10 км 4/1 600 м
[Cu hum Ac trans]
+29.2 +26.7 86 +45 +45 опасность
перегрева
1013.4 1013.1 +25.3 +35.2
09 25.05 СЗ 1 10 км 8/8 900 м
[Cu hum]
+28.6 +26.4 88 +44 +44 опасность
перегрева
1012.0 1011.7
12 25.05 З 1 18 км 3/1 900 м
[Cu hum]
+28.2 +26.5 91 +44 +44 опасность
перегрева
1011.8 1011.4 +27.1 +35.2

 

Местоположение метеостанции Acapulco (Мексика): широта 16.83 долгота -99.93 высота над уровнем моря 3 м.

В архиве по умолчанию представлена погода в Acapulco за последнюю неделю. Архивные данные за месяц целиком и за предыдущие месяцы, начиная с января 2011 года, Вы можете получить, выбрав интересующий диапазон дат из раскрывающегося списка и нажав кнопку "Ввод!".


*Определитесь, кто Вы:
робот инопланетянин человек

Внимание! Время в таблицах - всемирное. Для получения местного времени необходимо прибавить поправку, которая в Acapulco равна -6 ч.

Смотрите также архив погоды в соседних городах и на ближайших метеорологических станциях:

Погода в Chilpancingo (Мексика) (92 км)
Погода в Zacatepec (Мексика) (223 км)
Погода в Cuernavaca (Мексика) (240 км)
Погода в Huajuapan De Leon (Мексика) (253 км)
Погода в Toluca (Мексика) (274 км)
Погода в Institute of Geography (Мексика) (288 км)
Погода в Mexico City (Мексика) (297 км)
Погода в Puebla (Мексика) (310 км)
Погода в Tlaxcala Airport (Мексика) (329 км)
Погода в Tlaxcala (Мексика) (329 км)

Пояснения к столбцам:

Ветер - указаны скорость ветра в м/с - средняя за 10 мин, порывы в срок и между сроками (в фигурных скобках) и направление, откуда дует ветер: С - северный, СВ - северо-восточный, В - восточный, ЮВ - юго-восточный, Ю - южный, ЮЗ - юго-западный, З - западный, СЗ - северо-западный.
Видимость - горизонтальная дальность видимости в метрах или километрах. При видимости от 1 до 10 км при отсутствии осадков обычно наблюдается дымка, при ухудшении видимости до 1 км и менее - туман. В сухую погоду видимость может ухудшаться дымом, пылью или мглою.
Явления - указаны атмосферные явления, наблюдавшиеся в срок или в последний час перед сроком; фигурными скобками обозначены явления, наблюдавшиеся между сроками (за 1-3 часа до срока); квадратными скобками обозначены град или гололедные отложения с указанием их диаметра в мм.
Облачность - указаны через наклонную черту общая и нижняя облачность в баллах и высота нижней границы облаков в метрах; квадратными скобками обозначены формы облаков: Ci - перистые, Cs - перисто-слоистые, Cc - перисто-кучевые, Ac - высококучевые, As - высокослоистые, Sc - слоисто-кучевые, Ns - слоисто-дождевые, Cu - кучевые, Cb - кучево-дождевые. Подробнее классификацию облаков см. в Атласе облаков (PDF).
T - Температура воздуха - температура, измеренная на высоте 2 м над землей.
Td - Температура точки росы - температура, при понижении до которой содержащийся в воздухе водяной пар достигнет насыщения.
f - Относительная влажность воздуха - влажноcть воздуха, измеренная на высоте 2 м над землей.
Te - Эффективная температура - температура, которую ощущает одетый по сезону человек в тени. Характеристика душности погоды. При расчете учитывается влияние влажности воздуха и скорости ветра на теплоощущения человека.
Tes - Эффективная температура на солнце - температура, которую ощущает человек, с поправкой на солнечный нагрев. Характеристика знойности погоды. Зависит от высоты солнца над горизонтом, облачности и скорости ветра. Ночью, в пасмурную погоду, а также при ветре 12 м/с и более поправка равна нулю.
P - Атмосферное давление - приведенное к уровню моря атмосферное давление.
Po - Атмосферное давление - измеренное на уровне метеостанции атмосферное давление.
Tmin - Минимальная температура - минимум температуры воздуха на высоте 2 м над землей.
Tmax - Максимальная температура - максимум температуры воздуха на высоте 2 м над землей.
R - Количество осадков - Количество выпавших осадков за период времени, мм. При наведении курсора мыши на число - период времени, за который выпало указанное количество осадков.
R24 - Количество осадков - Количество выпавших осадков за 24 часа, мм.
S - Снежный покров - Высота снежного покрова, см. При наведении курсора мыши на число - состояние снежного покрова и степень покрытия местности в баллах.